This is the latest recevied weather packets stored in our database for station/object W1ERB-13. If no packets are shown the sender has not sent any weather packets the latest 1 day(s).
| Time | Temp. | Humidity | Pressure | Rain* | Wind** | Luminosity | Snow |
|---|---|---|---|---|---|---|---|
| 1777983180 | 15° C | 79% | 1010.8 hPa | 0 mm | 0.89 m/s, 213° | 380 W/m² | - |
| 1777982876 | 15° C | 81% | 1010.9 hPa | 0 mm | 1.34 m/s, 191° | 311 W/m² | - |
| 1777982573 | 14.44° C | 81% | 1010.8 hPa | 0 mm | 2.24 m/s, 188° | 257 W/m² | - |
| 1777982271 | 13.89° C | 83% | 1010.7 hPa | 0 mm | 1.79 m/s, 272° | 244 W/m² | - |
| 1777981969 | 13.89° C | 83% | 1010.5 hPa | 0 mm | 0.45 m/s, 224° | 221 W/m² | - |
| 1777981666 | 13.89° C | 83% | 1010.5 hPa | 0 mm | 0.89 m/s, 224° | 211 W/m² | - |
| 1777981362 | 13.33° C | 85% | 1010.7 hPa | 0 mm | 0 m/s | 163 W/m² | - |
| 1777981059 | 13.33° C | 85% | 1010.8 hPa | 0 mm | 0.45 m/s, 197° | 86 W/m² | - |
| 1777980756 | 12.78° C | 87% | 1010.8 hPa | 0 mm | 0.89 m/s, 227° | 194 W/m² | - |
| 1777980452 | 12.22° C | 88% | 1010.9 hPa | 0 mm | 0.89 m/s, 261° | 164 W/m² | - |
| 1777980150 | 12.22° C | 88% | 1010.7 hPa | 0 mm | 0.89 m/s, 226° | 58 W/m² | - |
| 1777979849 | 12.22° C | 88% | 1010.7 hPa | 0 mm | 1.34 m/s, 253° | 61 W/m² | - |
| 1777979546 | 12.22° C | 88% | 1010.5 hPa | 0 mm | 1.34 m/s, 244° | 75 W/m² | - |
| 1777979241 | 12.78° C | 87% | 1010.7 hPa | 0 mm | 1.34 m/s, 248° | 74 W/m² | - |
| 1777978939 | 12.22° C | 88% | 1010.2 hPa | 0 mm | 1.34 m/s, 254° | 101 W/m² | - |
| 1777978635 | 12.22° C | 89% | 1010.4 hPa | 0 mm | 0.89 m/s, 234° | 108 W/m² | - |
| 1777978331 | 11.67° C | 91% | 1010.4 hPa | 0 mm | 0 m/s | 84 W/m² | - |
| 1777978028 | 11.11° C | 91% | 1010.2 hPa | 0 mm | 0.89 m/s, 219° | 56 W/m² | - |
| 1777977725 | 11.11° C | 91% | 1010.2 hPa | 0 mm | 0.89 m/s, 237° | 41 W/m² | - |
| 1777977422 | 11.11° C | 92% | 1010.3 hPa | 0 mm | 0.89 m/s, 246° | 32 W/m² | - |
| 1777977120 | 11.11° C | 92% | 1010.2 hPa | 0 mm | 0.45 m/s, 221° | 26 W/m² | - |
| 1777976817 | 11.11° C | 92% | 1009.9 hPa | 0 mm | 0.89 m/s, 217° | 21 W/m² | - |
| 1777976514 | 11.11° C | 92% | 1009.9 hPa | 0 mm | 0.89 m/s, 227° | 18 W/m² | - |
| 1777976213 | 11.11° C | 92% | 1009.7 hPa | 0 mm | 0.89 m/s, 222° | 16 W/m² | - |
| 1777975909 | 11.11° C | 92% | 1009.8 hPa | 0 mm | 0.89 m/s, 226° | 12 W/m² | - |
* Rain latest hour (hover to see other rain measurements)
** Current wind speed in m/s (hover to see current wind gust speed)